Logan, UT

5:01 PM MDT on July 27, 2017 (GMT -0600)
Logan-Cache

Weather History for KLGU - November, 2011

Change the Weather History Date:

Friday, November 25, 2011

  Actual Average Record
Temperature  
Mean Temperature 34 °F -  
Max Temperature 45 °F 41 °F 66 °F (1960)
Min Temperature 19 °F 21 °F -15 °F (2010)
Degree Days  
Heating Degree Days 30    
Moisture  
Dew Point 25 °F    
Average Humidity 71    
Maximum Humidity 85    
Minimum Humidity 50    
Precipitation  
Precipitation 0.00 in - - ()
Sea Level Pressure  
Sea Level Pressure 30.17 in    
Wind  
Wind Speed 6 mph (North)    
Max Wind Speed 17 mph    
Max Gust Speed -    
Visibility 10 miles    
Events      
Averages and records for this station are not official NWS values.
T = Trace of Precipitation, MM = Missing Value Source: NWS Daily Summary

Daily Weather History Graph

Daily Weather History Graph

Search for Another Location

Airport or City:

Trip Planner

Search our weather history database for the weather conditions in past years. The results will help you decide how hot, cold, wet, or windy it might be!

Date:

Astronomy

Nov. 25, 2011 Rise Set
Actual Time 7:28 AM MST 4:59 PM MST
Civil Twilight 6:57 AM MST 5:30 PM MST
Nautical Twilight 6:23 AM MST 6:04 PM MST
Astronomical Twilight 5:50 AM MST 6:38 PM MST
Moon 8:01 AM MST (11/25) 5:30 PM MST (11/25)
Length of Visible Light 10h 32m
Length of Day
9h 31m
New Moon, 0% of the Moon is Illuminated
Nov 25
New Moon
Dec 2
First Quarter
Dec 10
Full
Dec 17
Last Quarter
Dec 24
New

Hourly Weather History & Observations

Time (MST) Temp. Windchill Dew Point Humidity Pressure Visibility Wind Dir Wind Speed Gust Speed Precip Events Conditions
12:51 AM 33.1 °F 26.9 °F 28.0 °F 82% 29.96 in 10.0 mi SE 6.9 mph - N/A   Mostly Cloudy
1:51 AM 32.0 °F 28.7 °F 28.0 °F 85% 29.94 in 10.0 mi North 3.5 mph - N/A   Mostly Cloudy
2:51 AM 30.9 °F 26.2 °F 27.0 °F 85% 29.96 in 10.0 mi East 4.6 mph - N/A   Mostly Cloudy
3:51 AM 34.0 °F 29.8 °F 28.0 °F 79% 29.97 in 10.0 mi NNW 4.6 mph - N/A   Overcast
4:51 AM 35.1 °F - 30.0 °F 82% 29.98 in 10.0 mi Calm Calm - N/A   Overcast
5:51 AM 35.1 °F 28.6 °F 30.0 °F 82% 30.02 in 10.0 mi East 8.1 mph - N/A   Overcast
6:51 AM 37.0 °F - 28.9 °F 73% 30.02 in 10.0 mi Calm Calm - N/A   Overcast
7:51 AM 37.0 °F - 28.9 °F 73% 30.05 in 10.0 mi Calm Calm - N/A   Overcast
9:51 AM 39.0 °F 35.7 °F 32.0 °F 76% 30.08 in 10.0 mi East 4.6 mph - 0.00 in   Overcast
10:51 AM 45.0 °F 41.8 °F 28.9 °F 53% 30.06 in 10.0 mi SW 5.8 mph - N/A   Clear
12:24 PM 39.2 °F 30.2 °F 30.2 °F 70% 30.07 in 10.0 mi North 17.3 mph - N/A   Overcast
12:31 PM 39.2 °F 30.2 °F 33.8 °F 81% 30.07 in 10.0 mi North 17.3 mph - N/A   Overcast
12:51 PM 39.9 °F 31.4 °F 32.0 °F 73% 30.10 in 10.0 mi North 16.1 mph - N/A   Overcast
1:51 PM 39.0 °F 31.8 °F 30.0 °F 70% 30.17 in 10.0 mi NNW 11.5 mph - N/A   Overcast
4:51 PM 35.1 °F 26.9 °F 18.0 °F 50% 30.27 in 10.0 mi WNW 11.5 mph - N/A   Clear
5:51 PM 32.0 °F 23.6 °F 17.1 °F 54% 30.32 in 10.0 mi NNW 10.4 mph - N/A   Clear
6:51 PM 30.9 °F 26.2 °F 16.0 °F 54% 30.37 in 10.0 mi WNW 4.6 mph - N/A   Clear
7:51 PM 28.9 °F - 17.1 °F 61% 30.40 in 10.0 mi Calm Calm - N/A   Clear
8:51 PM 28.9 °F 21.9 °F 16.0 °F 58% 30.45 in 10.0 mi NW 6.9 mph - N/A   Clear
9:51 PM 28.9 °F - 17.1 °F 61% 30.48 in 10.0 mi Calm Calm - N/A   Clear
10:51 PM 24.1 °F - 16.0 °F 71% 30.51 in 10.0 mi Calm Calm - N/A   Clear
11:51 PM 19.9 °F 11.1 °F 15.1 °F 81% 30.55 in 10.0 mi NNW 6.9 mph - N/A   Clear